Date String (YYYY-MM-DD hh:mm:ss) UTC,Instrument flags,Ambient pressure (hPa),Sample flow (lpm),Bypass flow (lpm),Sample temperature (°C),Ambient temperature (°C),ASC tube jacket temperature (°C),LED temperature (°C),Box temperature (°C),Sample RH (%),Span deviation,Mass concentration (μg/m³),Mass concentration (μg/m³),Mass concentration (μg/m³)
DateTimeUTC,F1_M11,P_M11,Q1_M11,Q2_M11,T1_M11,T2_M11,T3_M11,T4_M11,T5_M11,U1_M11,ZSPAN_M11,X0_M11,X2_M11,X1_M11
2022-06-20 18:00:00,,0824.5,5.00,0.00,29.2,28.3,00.0,37.9,31.2,24.6,0000.0,0010.44,0004.18,0003.12
2022-06-20 18:01:00,,0824.4,5.00,0.00,29.2,28.1,00.0,37.9,31.2,24.6,0000.0,0010.59,0004.24,0003.14
2022-06-20 18:02:00,,0824.5,5.00,0.00,29.2,27.4,00.0,37.8,31.0,24.7,0000.0,0010.59,0004.28,0003.14
2022-06-20 18:03:00,,0824.5,5.01,0.00,29.1,27.0,00.0,37.8,30.9,25.0,0000.0,0010.37,0004.30,0003.14
2022-06-20 18:04:00,,0824.5,5.00,0.00,29.1,27.0,00.0,37.8,30.9,25.3,0000.0,0009.66,0004.31,0003.14
2022-06-20 18:05:00,,0824.4,5.00,0.00,29.0,27.1,00.0,37.8,30.9,25.4,0000.0,0009.65,0004.29,0003.15
2022-06-20 18:06:00,,0824.4,4.99,0.00,29.0,27.3,00.0,37.8,30.9,25.4,0000.0,0009.61,0004.25,0003.15
2022-06-20 18:07:00,,0824.4,5.00,0.00,29.0,27.5,00.0,37.8,31.0,25.3,0000.0,0009.67,0004.30,0003.17
2022-06-20 18:08:00,,0824.4,5.00,0.00,29.1,27.7,00.0,37.8,31.0,25.3,0000.0,0009.61,0004.34,0003.19
2022-06-20 18:09:00,,0824.4,5.00,0.00,29.1,27.9,00.0,37.8,31.1,25.5,0000.0,0009.08,0004.35,0003.19
2022-06-20 18:10:00,,0824.3,5.00,0.00,29.1,28.0,00.0,37.9,31.1,25.6,0000.0,0009.49,0004.34,0003.20
2022-06-20 18:11:00,,0824.3,5.01,0.00,29.2,28.2,00.0,37.9,31.2,25.4,0000.0,0010.36,0004.34,0003.20
2022-06-20 18:12:00,,0824.3,5.00,0.00,29.2,28.1,00.0,37.9,31.2,25.2,0000.0,0010.39,0004.35,0003.22
2022-06-20 18:13:00,,0824.3,5.00,0.00,29.2,27.5,00.0,37.8,31.1,25.0,0000.0,0010.29,0004.35,0003.23
2022-06-20 18:14:00,,0824.2,5.00,0.00,29.1,27.0,00.0,37.8,30.9,24.9,0000.0,0010.56,0004.42,0003.24
2022-06-20 18:15:00,,0824.3,4.99,0.00,29.1,27.0,00.0,37.8,30.9,24.9,0000.0,0010.63,0004.45,0003.25
2022-06-20 18:16:00,,0824.3,5.00,0.00,29.0,27.1,00.0,37.8,30.9,24.9,0000.0,0010.78,0004.49,0003.27
2022-06-20 18:17:00,,0824.3,5.00,0.00,29.0,27.2,00.0,37.8,30.9,25.1,0000.0,0010.92,0004.54,0003.29
2022-06-20 18:18:00,,0824.4,5.00,0.00,29.0,27.4,00.0,37.8,30.9,25.3,0000.0,0010.90,0004.53,0003.29
2022-06-20 18:19:00,,0824.3,5.00,0.00,29.0,27.6,00.0,37.8,31.0,25.3,0000.0,0011.22,0004.58,0003.30
2022-06-20 18:20:00,,0824.3,5.01,0.00,29.1,27.8,00.0,37.8,31.1,25.3,0000.0,0011.69,0004.65,0003.33
2022-06-20 18:21:00,,0824.3,5.01,0.00,29.1,28.0,00.0,37.8,31.1,25.1,0000.0,0011.65,0004.68,0003.33
2022-06-20 18:22:00,,0824.3,4.98,0.00,29.1,28.1,00.0,37.9,31.2,24.8,0000.0,0011.03,0004.69,0003.33
2022-06-20 18:23:00,,0824.2,5.00,0.00,29.2,28.3,00.0,37.9,31.2,24.3,0000.0,0011.65,0004.71,0003.32
2022-06-20 18:24:00,,0824.2,5.01,0.00,29.2,28.1,00.0,37.9,31.2,23.7,0000.0,0012.01,0004.75,0003.32
2022-06-20 18:25:00,,0824.2,5.00,0.00,29.2,27.3,00.0,37.8,31.0,23.2,0000.0,0012.09,0004.69,0003.31
2022-06-20 18:26:00,,0824.2,4.99,0.00,29.1,26.9,00.0,37.8,30.9,22.9,0000.0,0012.51,0004.67,0003.31
2022-06-20 18:27:00,,0824.2,5.00,0.00,29.1,26.9,00.0,37.8,30.9,22.9,0000.0,0012.74,0004.69,0003.30
2022-06-20 18:28:00,,0824.2,5.00,0.00,29.0,27.1,00.0,37.8,30.9,22.6,0000.0,0012.87,0004.75,0003.29
2022-06-20 18:29:00,,0824.3,5.00,0.00,29.0,27.2,00.0,37.8,30.9,22.6,0000.0,0013.10,0004.82,0003.30
2022-06-20 18:30:00,,0824.2,5.00,0.00,29.0,27.4,00.0,37.8,31.0,22.4,0000.0,0012.78,0004.81,0003.29
2022-06-20 18:31:00,,0824.2,5.00,0.00,29.0,27.6,00.0,37.8,31.0,22.2,0000.0,0012.56,0004.79,0003.28
2022-06-20 18:32:00,,0824.2,5.00,0.00,29.1,27.8,00.0,37.8,31.1,22.3,0000.0,0012.33,0004.79,0003.28
2022-06-20 18:33:00,,0824.2,5.00,0.00,29.1,28.0,00.0,37.8,31.1,22.3,0000.0,0012.11,0004.79,0003.28
2022-06-20 18:34:00,,0824.3,4.99,0.00,29.1,28.2,00.0,37.9,31.2,22.2,0000.0,0011.51,0004.79,0003.28
2022-06-20 18:35:00,,0824.2,5.00,0.00,29.2,28.3,00.0,37.9,31.2,22.0,0000.0,0011.36,0004.73,0003.28
2022-06-20 18:36:00,,0824.2,5.01,0.00,29.2,27.9,00.0,37.8,31.1,22.1,0000.0,0011.11,0004.74,0003.28
2022-06-20 18:37:00,,0824.2,4.99,0.00,29.1,27.2,00.0,37.8,30.9,22.2,0000.0,0010.59,0004.74,0003.27
2022-06-20 18:38:00,,0824.2,5.00,0.00,29.1,27.0,00.0,37.8,30.9,22.0,0000.0,0010.14,0004.75,0003.27
2022-06-20 18:39:00,,0824.2,5.00,0.00,29.0,27.0,00.0,37.8,30.9,22.3,0000.0,0009.96,0004.70,0003.27
2022-06-20 18:40:00,,0824.2,4.99,0.00,29.0,27.2,00.0,37.8,30.9,22.5,0000.0,0009.72,0004.61,0003.24
2022-06-20 18:41:00,,0824.1,4.99,0.00,29.0,27.4,00.0,37.8,30.9,22.5,0000.0,0009.55,0004.56,0003.22
2022-06-20 18:42:00,,0824.2,5.00,0.00,29.0,27.5,00.0,37.8,31.0,22.4,0000.0,0009.43,0004.52,0003.21
2022-06-20 18:43:00,,0824.1,5.01,0.00,29.1,27.7,00.0,37.8,31.0,22.3,0000.0,0009.27,0004.46,0003.19
2022-06-20 18:44:00,,0824.1,5.00,0.00,29.1,27.9,00.0,37.8,31.1,22.2,0000.0,0009.33,0004.41,0003.17
2022-06-20 18:45:00,,0824.1,4.99,0.00,29.1,28.1,00.0,37.8,31.2,22.3,0000.0,0009.39,0004.37,0003.16
2022-06-20 18:46:00,,0824.1,5.01,0.00,29.2,28.2,00.0,37.9,31.2,22.4,0000.0,0009.41,0004.35,0003.14
2022-06-20 18:47:00,,0824.2,5.00,0.00,29.2,28.3,00.0,37.9,31.2,21.8,0000.0,0009.36,0004.28,0003.12
2022-06-20 18:48:00,,0824.1,5.00,0.00,29.2,27.7,00.0,37.9,31.1,21.1,0000.0,0009.44,0004.19,0003.10
2022-06-20 18:49:00,,0824.1,5.00,0.00,29.1,27.1,00.0,37.8,30.9,20.9,0000.0,0009.33,0004.14,0003.09
2022-06-20 18:50:00,,0824.1,5.01,0.00,29.1,27.1,00.0,37.8,30.9,20.8,0000.0,0009.22,0004.09,0003.06
2022-06-20 18:51:00,,0824.1,5.01,0.00,29.1,27.2,00.0,37.8,30.9,20.1,0000.0,0009.23,0004.10,0003.06
2022-06-20 18:52:00,,0824.1,4.99,0.00,29.1,27.3,00.0,37.8,30.9,19.9,0000.0,0009.31,0004.10,0003.07
2022-06-20 18:53:00,,0824.1,5.01,0.00,29.1,27.5,00.0,37.8,31.0,19.8,0000.0,0009.74,0004.09,0003.06
2022-06-20 18:54:00,,0824.1,5.00,0.00,29.1,27.7,00.0,37.8,31.0,19.7,0000.0,0009.74,0004.08,0003.05
2022-06-20 18:55:00,,0824.1,5.00,0.00,29.1,27.9,00.0,37.9,31.1,19.4,0000.0,0009.78,0004.12,0003.06
2022-06-20 18:56:00,,0824.1,5.01,0.00,29.1,28.1,00.0,37.9,31.2,19.5,0000.0,0009.46,0004.09,0003.02
2022-06-20 18:57:00,,0824.1,5.00,0.00,29.2,28.2,00.0,37.9,31.2,19.6,0000.0,0009.26,0004.05,0003.01
2022-06-20 18:58:00,,0824.1,4.99,0.00,29.2,28.1,00.0,37.9,31.2,19.9,0000.0,0009.09,0004.02,0003.01
2022-06-20 18:59:00,,0824.1,5.00,0.00,29.2,27.5,00.0,37.8,31.0,20.2,0000.0,0009.15,0004.11,0003.01
